Regional Weather Roundup
Issued by NWS Midland/Odessa, TX

Skip options and go directly to product.
Home | Oldest Version | Next Version | Current Version | All | Text Only | Save Text | Print | Product List | Glossary On

Skip product version selection by date and time.   
186
ASUS44 KMAF 192302
RWRMAF
MIDLAND AREA WEATHER ROUNDUP
NATIONAL WEATHER SERVICE MIDLAND TX
600 PM CDT SUN OCT 19 2014

...IN SOUTHWEST TEXAS AND SOUTHEAST NEW MEXICO...

CITY           SKY/WX    TMP DP  RH WIND       PRES   REMARKS
ALPINE         MOSUNNY   74  54  48 SE15G22   30.09F
ANDREWS        FAIR      74  58  57 SE13G18   30.03S
ARTESIA        NOT AVBL
BIG SPRING     PTSUNNY   74  64  71 E8        30.04R
CARLSBAD       MOSUNNY   72  57  59 CALM      30.01F
DRYDEN           N/A     78  61  55 E20G29    29.98F
FORT STOCKTON  SUNNY     76  52  43 S16G24    30.01R
GUAD PASS      NOT AVBL
HOBBS          MOSUNNY   73  55  53 SE6       30.05S
MARFA          CLOUDY    75  48  38 E12       30.07S
MIDLAND AIRPK  PTSUNNY   76  59  56 SE13G18   30.02S
MIDLAND INTL   PTSUNNY   77  58  51 SE22G30   30.01S
ODESSA         MOSUNNY   78  56  46 SE20      30.01S
PECOS          MOSUNNY   75  57  52 N8        29.97F
PRESIDIO       FAIR      86  50  29 E14       29.90F
SEMINOLE       PTSUNNY   74  58  56 SE13      30.04F
SNYDER         PTSUNNY   75  59  58 SE8       30.04F
WINK           MOSUNNY   80  56  43 SE10      29.98S
$$
...OTHER STATIONS IN TEXAS...

CITY           SKY/WX    TMP DP  RH WIND       PRES   REMARKS
ABILENE        FAIR      78  57  48 S10       30.04S
AMARILLO       CLOUDY    68  56  65 S18       30.05S
AUSTIN         PTSUNNY   79  61  53 E9        30.01S
BROWNSVILLE    CLOUDY    80  66  62 E6        29.94S
CORPUS CHRISTI CLOUDY    80  65  59 E12       29.98S
DALLAS FTW     PTCLDY    75  56  51 SE6       30.05S
DEL RIO        PTSUNNY   81  59  47 SE9       29.96F
EL PASO        PTSUNNY   80  46  30 E15       29.94F
HOUSTON INT    PTCLDY    78  63  59 N6        30.02S
LUBBOCK        CLOUDY    69  58  67 S13       30.05F
SAN ANGELO     PTSUNNY   80  54  40 E12       30.01S
SAN ANTONIO    CLOUDY    82  56  40 E9        30.00F
WACO           CLEAR     77  61  57 E7        30.04F
WICHITA FALLS  NOT AVBL
$$
...OTHER LOCATIONS IN NEW MEXICO...

CITY           SKY/WX    TMP DP  RH WIND       PRES   REMARKS
ALAMAGORDO     NOT AVBL
ALBUQUERQUE    PTSUNNY   61  44  53 SE7       30.15F
CANNON AFB     CLOUDY    69  54  57 SW10      30.08R
CLOVIS         CLOUDY    70  54  56 S12       30.10R
HOLLOMAN AFB   MOSUNNY   72  47  41 N9        30.01F
ROSWELL        MOSUNNY   71  55  56 S7        30.05F
RUIDOSO        MOSUNNY   57  50  77 N6        30.19S
SANTA FE       PTSUNNY   65  42  43 SW20G26   30.15R
TRUTH OR CONSE SUNNY     65  50  58 NE9       30.07F
TUCUMCARI      PTSUNNY   75  48  38 SW15      30.03R
$$

USA.gov is the U.S. government's official web portal to all federal, state and local government web resources and services.